User: anonymous   Login
Location: Unspecified
(0.0000°N, 0.0000°E)
Time: 22:12:29
(UTC+00:00)
Language:

OBJECT C - Orbit

View from above orbital plane
View from above orbital plane
View from above satellite
View from above satellite

Ground track
Ground track

The orbit data is extracted from the following two-line orbital elements,

1 43615U 18070C   18344.36422648  .00003214  00000-0  89915-4 0  9996
2 43615  93.0364 284.9774 0015025 328.2968  31.7379 15.36620093 13175
Epoch (UTC): 10 December 2018 08:44:29
Eccentricity: 0.0015025
inclination: 93.0364°
perigee height: 446 km
apogee height: 466 km
right ascension of ascending node: 284.9774°
argument of perigee: 328.2968°
revolutions per day: 15.36620093
mean anomaly at epoch: 31.7379°
orbit number at epoch: 1317

The dashed part of the orbit path shows where the satellite is in the earth's shadow,  

DLR